Monroe, MI

10:46 AM EDT on August 18, 2017 (GMT -0400)
Custer

Weather History for KTTF - October, 2011

Change the Weather History Date:

Wednesday, October 12, 2011

  Actual Average Record
Temperature  
Mean Temperature 60 °F -  
Max Temperature 64 °F 61 °F 85 °F (1962)
Min Temperature 55 °F 43 °F 28 °F (1937)
Degree Days  
Heating Degree Days 6    
Growing Degree Days 10 (Base 50)    
Moisture  
Dew Point 59 °F    
Average Humidity 97    
Maximum Humidity 100    
Minimum Humidity 77    
Precipitation  
Precipitation 0.00 in - - ()
Sea Level Pressure  
Sea Level Pressure 29.89 in    
Wind  
Wind Speed 3 mph (ESE)    
Max Wind Speed 8 mph    
Max Gust Speed -    
Visibility 6 miles    
Events Rain    
Averages and records for this station are not official NWS values.
T = Trace of Precipitation, MM = Missing Value Source: NWS Daily Summary

Daily Weather History Graph

Daily Weather History Graph

Search for Another Location

Airport or City:

Trip Planner

Search our weather history database for the weather conditions in past years. The results will help you decide how hot, cold, wet, or windy it might be!

Date:

Astronomy

Oct. 12, 2011 Rise Set
Actual Time 7:42 AM EDT 6:57 PM EDT
Civil Twilight 7:14 AM EDT 7:25 PM EDT
Nautical Twilight 6:42 AM EDT 7:57 PM EDT
Astronomical Twilight 6:09 AM EDT 8:29 PM EDT
Moon 6:56 PM EDT (10/12) 8:17 AM EDT (10/12)
Length of Visible Light 12h 10m
Length of Day
11h 14m
Full, 100% of the Moon is Illuminated
Oct 12
Full
Oct 19
Last Quarter
Oct 26
New
Nov 2
First Quarter
Nov 10
Full

Hourly Weather History & Observations

Time (EDT) Temp. Dew Point Humidity Pressure Visibility Wind Dir Wind Speed Gust Speed Precip Events Conditions
12:14 AM 62.6 °F 62.6 °F 100% 29.99 in 7.0 mi East 4.6 mph - N/A   Clear
12:34 AM 62.6 °F 62.6 °F 100% 29.99 in 7.0 mi ESE 4.6 mph - N/A   Clear
12:54 AM 60.8 °F 60.8 °F 100% 29.98 in 7.0 mi East 4.6 mph - N/A   Clear
1:14 AM 60.8 °F 60.8 °F 100% 29.98 in 5.0 mi East 3.5 mph - N/A   Clear
1:35 AM 60.8 °F 60.8 °F 100% 29.97 in 3.0 mi Calm Calm - N/A   Clear
1:55 AM 57.2 °F 57.2 °F 100% 29.97 in 2.5 mi Calm Calm - N/A   Clear
2:15 AM 57.2 °F 57.2 °F 100% 29.96 in 2.5 mi Calm Calm - N/A   Clear
2:35 AM 57.2 °F 57.2 °F 100% 29.96 in 2.5 mi Calm Calm - N/A   Clear
2:55 AM 55.4 °F 55.4 °F 100% 29.96 in 1.0 mi Calm Calm - N/A   Mist
3:35 AM 59.0 °F 57.2 °F 94% 29.95 in 1.5 mi Calm Calm - N/A   Mist
4:10 AM 57.2 °F 57.2 °F 100% 29.94 in 3.0 mi Calm Calm - N/A   Clear
4:31 AM 57.2 °F 57.2 °F 100% 29.94 in 1.8 mi Calm Calm - N/A   Mist
5:11 AM 57.2 °F 57.2 °F 100% 29.93 in 2.0 mi Calm Calm - N/A   Clear
5:31 AM 57.2 °F 57.2 °F 100% 29.93 in 2.0 mi Calm Calm - N/A   Clear
5:51 AM 57.2 °F 57.2 °F 100% 29.93 in 2.5 mi Calm Calm - N/A   Clear
6:11 AM 57.2 °F 57.2 °F 100% 29.93 in 2.5 mi Calm Calm - N/A   Clear
6:31 AM 55.4 °F 55.4 °F 100% 29.93 in 1.2 mi ENE 3.5 mph - N/A   Mist
6:51 AM 55.4 °F 55.4 °F 100% 29.93 in 2.5 mi Calm Calm - N/A   Clear
7:11 AM 55.4 °F 55.4 °F 100% 29.93 in 2.0 mi Calm Calm - N/A   Clear
7:31 AM 55.4 °F 55.4 °F 100% 29.93 in 1.5 mi Calm Calm - N/A   Mist
7:51 AM 57.2 °F 57.2 °F 100% 29.93 in 2.5 mi SSE 5.8 mph - N/A   Clear
8:12 AM 60.8 °F 60.8 °F 100% 29.94 in 5.0 mi South 4.6 mph - N/A   Clear
8:32 AM 60.8 °F 60.8 °F 100% 29.94 in 5.0 mi South 3.5 mph - N/A   Clear
8:52 AM 60.8 °F 60.8 °F 100% 29.94 in 5.0 mi South 3.5 mph - N/A   Clear
9:12 AM 60.8 °F 60.8 °F 100% 29.94 in 7.0 mi South 5.8 mph - N/A   Clear
9:32 AM 60.8 °F 60.8 °F 100% 29.95 in 10.0 mi South 6.9 mph - N/A   Clear
10:14 AM 62.6 °F 60.8 °F 94% 29.94 in 10.0 mi SSE 3.5 mph - N/A   Scattered Clouds
10:35 AM 62.6 °F 57.2 °F 82% 29.94 in 10.0 mi Calm Calm - N/A   Mostly Cloudy
11:15 AM 64.4 °F 59.0 °F 83% 29.94 in 10.0 mi Calm Calm - N/A   Mostly Cloudy
11:35 AM 64.4 °F 57.2 °F 77% 29.92 in 10.0 mi Calm Calm - N/A   Scattered Clouds
11:55 AM 64.4 °F 57.2 °F 77% 29.92 in 10.0 mi Calm Calm - N/A   Scattered Clouds
12:10 PM 62.6 °F 60.8 °F 94% 29.92 in 10.0 mi ESE 6.9 mph - N/A Rain Light Rain
12:30 PM 62.6 °F 60.8 °F 94% 29.91 in 7.0 mi ESE 5.8 mph - N/A Rain Light Rain
12:50 PM 62.6 °F 60.8 °F 94% 29.90 in 10.0 mi East 3.5 mph - N/A   Light Drizzle
1:11 PM 62.6 °F 60.8 °F 94% 29.89 in 10.0 mi ENE 5.8 mph - N/A   Light Drizzle
1:31 PM 62.6 °F 60.8 °F 94% 29.88 in 10.0 mi ENE 5.8 mph - N/A   Light Drizzle
1:51 PM 62.6 °F 60.8 °F 94% 29.87 in 10.0 mi East 8.1 mph - N/A   Mostly Cloudy
2:11 PM 62.6 °F 60.8 °F 94% 29.86 in 10.0 mi East 6.9 mph - N/A   Mostly Cloudy
2:31 PM 62.6 °F 59.0 °F 88% 29.85 in 10.0 mi ENE 8.1 mph - N/A   Overcast
2:51 PM 60.8 °F 60.8 °F 100% 29.85 in 10.0 mi ENE 5.8 mph - N/A   Overcast
3:11 PM 60.8 °F 60.8 °F 100% 29.84 in 10.0 mi NE 4.6 mph - N/A   Overcast
3:31 PM 59.0 °F 59.0 °F 100% 29.83 in 7.0 mi ESE 5.8 mph - N/A Rain Light Rain
3:52 PM 60.8 °F 60.8 °F 100% 29.82 in 5.0 mi Calm Calm - N/A   Drizzle
4:12 PM 60.8 °F 60.8 °F 100% 29.82 in 2.5 mi East 3.5 mph - N/A   Heavy Drizzle
4:32 PM 59.0 °F 59.0 °F 100% 29.81 in 2.5 mi East 4.6 mph - N/A   Drizzle
5:14 PM 60.8 °F 60.8 °F 100% 29.80 in 4.0 mi Calm Calm - N/A   Light Drizzle
5:34 PM 60.8 °F 60.8 °F 100% 29.79 in 10.0 mi Calm Calm - N/A   Overcast
5:54 PM 60.8 °F 60.8 °F 100% 29.78 in 10.0 mi Calm Calm - N/A   Overcast
6:14 PM 60.8 °F 60.8 °F 100% 29.78 in 10.0 mi Calm Calm - N/A   Overcast
6:35 PM 60.8 °F 60.8 °F 100% 29.78 in 10.0 mi Calm Calm - N/A   Overcast
6:55 PM 59.0 °F 59.0 °F 100% 29.78 in 10.0 mi Calm Calm - N/A   Overcast
7:15 PM 59.0 °F 59.0 °F 100% 29.77 in 10.0 mi Calm Calm - N/A   Overcast
7:35 PM 59.0 °F 59.0 °F 100% 29.77 in 10.0 mi Calm Calm - N/A   Overcast
7:55 PM 59.0 °F 59.0 °F 100% 29.77 in 7.0 mi Calm Calm - N/A   Overcast
8:15 PM 57.2 °F 57.2 °F 100% 29.76 in 5.0 mi Calm Calm - N/A   Overcast
8:35 PM 57.2 °F 57.2 °F 100% 29.76 in 4.0 mi Calm Calm - N/A   Overcast
8:50 PM 57.2 °F 57.2 °F 100% 29.76 in 4.0 mi Calm Calm - N/A   Overcast
9:10 PM 57.2 °F - N/A% 29.76 in 4.0 mi Calm Calm - N/A   Haze
9:31 PM 57.2 °F 57.2 °F 100% 29.76 in 2.5 mi Calm Calm - N/A   Overcast
9:51 PM 57.2 °F - N/A% 29.76 in 3.0 mi Calm Calm - N/A   Overcast
10:11 PM 57.2 °F - N/A% 29.76 in 2.0 mi Calm Calm - N/A   Overcast
10:31 PM 57.2 °F - N/A% 29.75 in 3.0 mi Calm Calm - N/A   Overcast
10:51 PM 57.2 °F - N/A% 29.75 in 2.5 mi Calm Calm - N/A   Overcast
11:11 PM 57.2 °F - N/A% 29.75 in 2.5 mi Calm Calm - N/A   Overcast
11:31 PM 57.2 °F - N/A% 29.75 in 2.0 mi Calm Calm - N/A   Overcast
11:51 PM 57.2 °F - N/A% 29.74 in 2.5 mi Calm Calm - N/A   Overcast